Notices

What's New in latest Release from April 7th, 2021:

- Updated Glossary, including Speed of Maximum Gust, and Total Hourly Precipitation

- Updated national and regional climate services offices contacts and prices information

- Addition of station inventory lists for 1981-2010, 1971-2000, and 1961-1990 Normals.

If you haven't already, please take our survey and provide feedback about our website: https://eccc.sondage-survey.ca/f/LanguageSelection.aspx?s=442ca660-fcf1-47c0-95a9-59707d6fd709

Hourly Data Report for October 17, 2019

QUALICUM BEACH AIRPORT
BRITISH COLUMBIA
Current Station Operator: ECCC - MSC

49°20'14.000" N
124°23'38.000" W
58.20 m
1026562
71766
VOQ

Download Data

Hourly Data (October 2019)
Hourly Data Report for October 17, 2019
TIME
LST
Temp Definition
°C
Dew Point Definition
°C
Rel Hum Definition
%
Precip. Amount Definition
mm

Wind Dir Definition
10's deg

Wind Spd Definition
km/h
Visibility Definition
km
Stn Press Definition
kPa
Hmdx Definition


Wind Chill Definition


Weather Definition


00:00 10.4 6.6 77 0.0 14 15   99.42     LegendNANA
01:00 9.3 7.1 87 0.0 12 10   99.38     LegendNANA
02:00 9.0 7.5 90 0.4 12 11   99.35     LegendNANA
03:00 9.2 7.9 92 0.4 11 11   99.27     LegendNANA
04:00 9.6 7.8 89 0.0 13 15   99.22     LegendNANA
05:00 9.6 8.0 90 0.0 13 14   99.19     LegendNANA
06:00 9.5 8.4 93 0.3 12 13   99.17     LegendNANA
07:00 9.9 8.4 90 0.0 13 18   99.15     LegendNANA
08:00 10.4 8.6 89 0.0 11 6   99.17     LegendNANA
09:00 10.7 9.2 90 0.1 24 3   99.21     LegendNANA
10:00 11.6 9.8 89 0.0 1 3   99.23     LegendNANA
11:00 12.8 9.8 82 0.0 34 5   99.23     LegendNANA
12:00 14.5 7.6 63 0.0 19 9   99.23     LegendNANA
13:00 14.8 8.0 64 0.0 15 20   99.18     LegendNANA
14:00 11.9 8.1 78 0.7 16 9   99.20     LegendNANA
15:00 10.3 8.5 89 3.2 13 19   99.17     LegendNANA
16:00 10.2 9.4 95 2.4 14 8   99.23     LegendNANA
17:00 10.0 8.7 91 0.0 27 5   99.25     LegendNANA
18:00 9.1 7.7 91 0.0 6 4   99.28     LegendNANA
19:00 8.1 6.2 88 0.0 27 5   99.30     LegendNANA
20:00 6.7 5.8 94 0.0 24 3   99.41     LegendNANA
21:00 7.3 6.3 93 0.0 6 6   99.43     LegendNANA
22:00 7.5 6.3 93 0.0 18 3   99.51     LegendNANA
23:00 7.7 6.2 90 0.0 30 3   99.57     LegendNANA

Notes on Data Quality.

Legend

  • E = Estimated
  • M = Missing
  • NA = Not Available*
  • [empty] = Indicates an unobserved value
Date modified: